This is the latest recevied weather packets stored in our database for station/object G6UYG-13. If no packets are shown the sender has not sent any weather packets the latest 10 day(s).
| Time | Temp. | Humidity | Pressure | Rain* | Wind** | Luminosity | Snow |
|---|---|---|---|---|---|---|---|
| 1777212979 | 21.11° C | 39% | 1021.6 hPa | 0 mm | - | 526 W/m² | - |
| 1777212559 | 21.11° C | 39% | 1021.6 hPa | 0 mm | - | 666 W/m² | - |
| 1777212139 | 20.56° C | 40% | 1021.7 hPa | 0 mm | - | 682 W/m² | - |
| 1777211719 | 20° C | 41% | 1021.7 hPa | 0 mm | - | 661 W/m² | - |
| 1777211299 | 20° C | 41% | 1021.8 hPa | 0 mm | - | 527 W/m² | - |
| 1777210879 | 20° C | 44% | 1021.7 hPa | 0 mm | - | 645 W/m² | - |
| 1777210459 | 20° C | 41% | 1021.7 hPa | 0 mm | - | 564 W/m² | - |
| 1777210039 | 20° C | 42% | 1021.8 hPa | 0 mm | - | 601 W/m² | - |
| 1777209619 | 20° C | 43% | 1021.8 hPa | 0 mm | - | 580 W/m² | - |
| 1777209199 | 20° C | 44% | 1021.8 hPa | 0 mm | - | 619 W/m² | - |
| 1777208779 | 19.44° C | 44% | 1022 hPa | 0 mm | - | 640 W/m² | - |
| 1777208360 | 19.44° C | 45% | 1022.1 hPa | 0 mm | - | 575 W/m² | - |
| 1777207939 | 18.89° C | 43% | 1022 hPa | 0 mm | - | 587 W/m² | - |
| 1777207519 | 19.44° C | 43% | 1022 hPa | 0 mm | - | 564 W/m² | - |
| 1777207100 | 19.44° C | 43% | 1022 hPa | 0 mm | - | 712 W/m² | - |
| 1777206680 | 19.44° C | 44% | 1022.1 hPa | 0 mm | - | 496 W/m² | - |
| 1777206260 | 19.44° C | 46% | 1022.1 hPa | 0 mm | - | 738 W/m² | - |
| 1777205840 | 18.89° C | 47% | 1022.2 hPa | 0 mm | - | 703 W/m² | - |
| 1777205420 | 18.33° C | 52% | 1022.3 hPa | 0 mm | - | 858 W/m² | - |
| 1777205000 | 18.33° C | 53% | 1022.3 hPa | 0 mm | - | 668 W/m² | - |
| 1777204580 | 18.33° C | 57% | 1022.4 hPa | 0 mm | - | 777 W/m² | - |
| 1777204160 | 17.78° C | 58% | 1022.4 hPa | 0 mm | - | 749 W/m² | - |
| 1777203740 | 17.22° C | 62% | 1022.5 hPa | 0 mm | - | 888 W/m² | - |
| 1777203320 | 16.67° C | 63% | 1022.5 hPa | 0 mm | - | 904 W/m² | - |
| 1777202900 | 16.11° C | 65% | 1022.5 hPa | 0 mm | - | 758 W/m² | - |
* Rain latest hour (hover to see other rain measurements)
** Current wind speed in m/s (hover to see current wind gust speed)